GW5607 Weather Reports


Display with metric or nautical units.
time (UTC)temp
F
wind
direction
speed
MPH
gust
MPH
rain 1hr
in
rain 24hr
in
rain mn
in
humidity
%
barometer
mb
20260906115839 75 162 0.0 0.0 0.00 0.00 0.00 92 1013.1
20260906115334 75 165 0.0 0.0 0.00 0.00 0.00 92 1012.6
20260906114833 75 165 0.0 0.0 0.00 0.00 0.00 92 1012.8
20260906114328 75 165 0.0 0.0 0.00 0.00 0.00 92 1012.7
20260906113824 75 165 0.0 0.0 0.00 0.00 0.00 92 1012.7
20260906113323 75 165 0.0 0.0 0.00 0.00 0.00 91 1012.3
20260906112818 75 164 0.0 0.0 0.00 0.00 0.00 91 1012.3
20260906112314 75 164 0.0 0.0 0.00 0.00 0.00 91 1012.4
20260906111814 75 164 0.0 0.0 0.00 0.00 0.00 91 1012.1
20260906111313 75 164 0.0 0.0 0.00 0.00 0.00 90 1012.3
20260906110809 75 162 0.0 0.0 0.00 0.00 0.00 90 1012.4
20260906110305 75 165 0.0 0.0 0.00 0.00 0.00 90 1012.0
20260906105803 76 165 0.0 0.0 0.00 0.00 0.00 89 1011.9
20260906105259 76 165 0.0 0.0 0.00 0.00 0.00 88 1012.1
20260906104754 76 165 0.0 0.0 0.00 0.00 0.00 88 1012.0
20260906104254 76 172 0.0 0.0 0.00 0.00 0.00 88 1012.0
20260906103752 76 174 0.0 0.0 0.00 0.00 0.00 88 1012.0
20260906103252 76 173 0.0 0.0 0.00 0.00 0.00 87 1011.9
20260906102748 76 175 0.0 0.0 0.00 0.00 0.00 87 1012.0
20260906102246 76 170 0.0 0.0 0.00 0.00 0.00 87 1012.0
20260906101742 76 170 0.0 0.0 0.00 0.00 0.00 86 1011.9
20260906101242 76 170 0.0 0.0 0.00 0.00 0.00 86 1012.0
20260906100737 77 166 0.0 0.0 0.00 0.00 0.00 87 1011.8
20260906100237 77 168 0.0 0.0 0.00 0.00 0.00 86 1011.7
20260906095732 77 162 0.0 0.0 0.00 0.00 0.00 86 1011.7
20260906095227 77 164 0.0 0.0 0.00 0.00 0.00 86 1011.8
20260906094726 77 165 0.0 0.0 0.00 0.00 0.00 86 1011.8
20260906094222 77 163 0.0 0.0 0.00 0.00 0.00 85 1011.7
20260906093718 77 164 0.0 0.0 0.00 0.00 0.00 85 1011.7
20260906093213 77 166 0.0 0.0 0.00 0.00 0.00 85 1011.7
20260906092709 77 166 0.0 0.0 0.00 0.00 0.00 85 1011.7
20260906092208 77 166 0.0 0.0 0.00 0.00 0.00 84 1011.5
20260906091704 77 164 0.0 0.0 0.00 0.00 0.00 85 1011.9
20260906091200 77 164 0.0 0.0 0.00 0.00 0.00 85 1011.7
20260906090656 78 162 0.0 0.0 0.00 0.00 0.00 86 1011.4
20260906090155 77 165 0.0 0.0 0.00 0.00 0.00 85 1011.6
20260906085655 77 155 0.0 0.0 0.00 0.00 0.00 87 1011.7
20260906085154 77 143 0.0 0.0 0.00 0.00 0.00 87 1011.7
20260906084649 77 160 0.0 0.0 0.00 0.00 0.00 87 1011.7
20260906084148 77 164 0.0 0.0 0.00 0.00 0.00 88 1011.6
20260906083643 77 164 0.0 0.0 0.00 0.00 0.00 88 1011.5
20260906083139 77 163 0.0 0.0 0.00 0.00 0.00 88 1011.6
20260906082634 77 163 0.0 0.0 0.00 0.00 0.00 88 1011.6
20260906082129 77 162 0.0 0.0 0.00 0.00 0.00 88 1011.5
20260906081625 77 165 0.0 0.0 0.00 0.00 0.00 89 1011.6
20260906081120 77 163 0.0 0.0 0.00 0.00 0.00 89 1011.8
20260906080617 77 157 0.0 0.0 0.00 0.00 0.00 88 1011.7
20260906080113 77 163 0.0 0.0 0.00 0.00 0.00 88 1011.7
20260906075612 77 165 0.0 0.0 0.00 0.00 0.00 88 1011.7
20260906075107 78 164 0.0 0.0 0.00 0.00 0.00 87 1011.5
20260906074603 78 167 0.0 0.0 0.00 0.00 0.00 87 1011.5
20260906074101 78 167 0.0 0.0 0.00 0.00 0.00 87 1011.7
20260906073556 78 166 0.0 0.0 0.00 0.00 0.00 87 1011.6
20260906073052 78 167 0.0 0.0 0.00 0.00 0.00 86 1011.5
20260906072552 78 167 0.0 0.0 0.00 0.00 0.00 86 1011.4
20260906072049 78 167 0.0 0.0 0.00 0.00 0.00 85 1011.4
20260906071545 79 174 0.0 0.0 0.00 0.00 0.00 84 1011.3
20260906071039 79 174 0.0 0.0 0.00 0.00 0.00 83 1011.3
20260906070536 79 174 0.0 0.0 0.00 0.00 0.00 83 1011.2
20260906070031 79 178 0.0 0.0 0.00 0.00 0.00 82 1011.3
20260906065531 79 175 0.0 0.0 0.00 0.00 0.00 82 1011.5
20260906065026 80 170 0.0 0.0 0.00 0.00 0.00 82 1011.4
20260906064523 80 170 0.0 0.0 0.00 0.00 0.00 82 1011.7
20260906064022 80 169 0.0 0.0 0.00 0.00 0.00 80 1011.6
20260906063518 80 165 0.0 0.0 0.00 0.00 0.00 79 1011.6
20260906063014 80 160 0.0 0.0 0.00 0.00 0.00 79 1011.6
20260906062509 80 163 0.0 0.0 0.00 0.00 0.00 80 1011.8
20260906062003 80 160 0.0 0.0 0.00 0.00 0.00 80 1011.9
20260906061500 80 161 0.0 0.0 0.00 0.00 0.00 80 1011.9
20260906060959 80 164 0.0 0.0 0.00 0.00 0.00 79 1011.7
20260906060456 80 168 0.0 0.0 0.00 0.00 0.00 79 1012.0
20260906055952 80 166 0.0 0.0 0.00 0.00 0.00 79 1011.8
20260906055448 80 160 0.0 0.0 0.00 0.00 0.00 79 1011.8
20260906054943 80 165 0.0 0.0 0.00 0.00 0.00 79 1012.0
20260906054443 80 164 0.0 0.0 0.00 0.00 0.00 81 1012.1
20260906053939 80 169 0.0 0.0 0.00 0.00 0.00 80 1012.0
20260906053435 80 175 0.0 0.0 0.00 0.00 0.00 79 1012.1
20260906052930 80 139 0.0 0.0 0.00 0.00 0.00 82 1012.1
20260906052427 80 165 0.0 0.0 0.00 0.00 0.00 81 1011.9
20260906051923 80 161 0.0 0.0 0.00 0.00 0.00 81 1012.3
20260906051418 80 166 0.0 0.0 0.00 0.00 0.00 79 1012.0
20260906050914 80 165 0.0 0.0 0.00 0.00 0.00 82 1012.1
20260906050413 80 159 0.0 0.0 0.00 0.00 0.00 84 1012.0
20260906045913 80 163 0.0 0.0 0.00 0.00 0.00 84 1012.1
20260906045411 80 160 0.0 0.0 0.00 0.00 0.00 84 1012.3
20260906044908 80 153 1.0 1.0 0.00 0.00 0.00 83 1012.2
20260906044408 81 166 0.0 0.0 0.00 0.00 0.00 82 1012.1
20260906043904 81 165 0.0 1.0 0.00 0.00 0.00 81 1012.0
20260906043400 81 172 0.0 0.0 0.00 0.00 0.00 80 1011.8
20260906042855 81 173 0.0 0.0 0.00 0.00 0.00 81 1012.0
20260906042353 81 172 0.0 0.0 0.00 0.00 0.00 83 1012.1
20260906041849 81 164 0.0 0.0 0.00 0.00 0.00 82 1011.9
20260906041345 81 165 0.0 0.0 0.00 0.00 0.00 82 1011.9
20260906040844 82 165 0.0 0.0 0.00 0.00 0.00 81 1012.0
20260906040340 82 164 0.0 0.0 0.00 0.00 0.00 81 1011.9
20260906035835 82 167 0.0 0.0 0.00 0.00 0.00 80 1011.7
20260906035330 82 167 0.0 0.0 0.00 0.00 0.00 81 1012.0
20260906034827 82 163 0.0 0.0 0.00 0.00 0.00 82 1011.7
20260906034326 82 166 0.0 0.0 0.00 0.00 0.00 81 1011.6
20260906033822 82 165 0.0 0.0 0.00 0.00 0.00 81 1011.7
20260906033321 82 165 0.0 0.0 0.00 0.00 0.00 81 1011.8
20260906032818 82 163 0.0 0.0 0.00 0.00 0.00 82 1011.7
20260906032313 82 164 0.0 0.0 0.00 0.00 0.00 81 1011.6
20260906031808 82 169 0.0 0.0 0.00 0.00 0.00 80 1011.7
20260906031304 82 169 0.0 0.0 0.00 0.00 0.00 81 1011.6
20260906030803 82 169 0.0 0.0 0.00 0.00 0.00 80 1011.6
20260906030259 82 169 0.0 0.0 0.00 0.00 0.00 81 1011.8
20260906025759 82 169 0.0 0.0 0.00 0.00 0.00 81 1011.8
20260906025253 83 168 0.0 0.0 0.00 0.00 0.00 80 1011.8
20260906024752 83 167 0.0 0.0 0.00 0.00 0.00 79 1011.7
20260906024251 83 167 0.0 0.0 0.00 0.00 0.00 79 1011.5
20260906023747 83 167 0.0 0.0 0.00 0.00 0.00 78 1011.5
20260906023242 83 167 0.0 0.0 0.00 0.00 0.00 78 1011.6
20260906022738 83 167 0.0 0.0 0.00 0.00 0.00 77 1011.4
20260906022233 83 165 0.0 0.0 0.00 0.00 0.00 78 1011.5
20260906021729 84 165 0.0 0.0 0.00 0.00 0.00 78 1011.3
20260906021227 84 165 0.0 0.0 0.00 0.00 0.00 79 1011.3
20260906020722 84 165 0.0 0.0 0.00 0.00 0.00 79 1011.1
20260906020217 84 165 0.0 0.0 0.00 0.00 0.00 78 1011.2
20260906015712 84 165 0.0 0.0 0.00 0.00 0.00 78 1011.0
20260906015210 84 166 0.0 0.0 0.00 0.00 0.00 78 1010.9
20260906014710 84 166 0.0 0.0 0.00 0.00 0.00 78 1011.0
20260906014207 84 166 0.0 0.0 0.00 0.00 0.00 78 1011.0
20260906013702 85 165 0.0 0.0 0.00 0.00 0.00 77 1010.8
20260906013157 85 162 0.0 0.0 0.00 0.00 0.00 75 1010.9
20260906012658 85 181 0.0 0.0 0.00 0.00 0.00 75 1010.7
20260906012157 86 161 0.0 0.0 0.00 0.00 0.00 75 1010.7
20260906011653 86 161 0.0 0.0 0.00 0.00 0.00 74 1010.8
20260906011148 86 165 0.0 0.0 0.00 0.00 0.00 73 1010.8
20260906010643 86 165 0.0 0.0 0.00 0.00 0.00 73 1010.8
20260906010139 87 165 0.0 0.0 0.00 0.00 0.00 72 1010.7
20260906005639 87 167 0.0 0.0 0.00 0.00 0.00 71 1010.6
20260906005138 87 167 0.0 0.0 0.00 0.00 0.00 69 1010.8
20260906004637 88 167 0.0 0.0 0.00 0.00 0.00 70 1010.6
20260906004132 88 167 0.0 0.0 0.00 0.00 0.00 70 1010.6
20260906003627 88 167 0.0 0.0 0.00 0.00 0.00 68 1010.6
20260906003123 89 166 0.0 0.0 0.00 0.00 0.00 66 1010.3
20260906002618 89 166 0.0 0.0 0.00 0.00 0.00 69 1010.5
20260906002113 90 166 0.0 0.0 0.00 0.00 0.00 68 1010.3
20260906001608 90 166 0.0 0.0 0.00 0.00 0.00 66 1010.5
20260906001102 91 166 0.0 0.0 0.00 0.00 0.00 65 1010.6
20260906000558 91 164 0.0 0.0 0.00 0.00 0.00 63 1010.8
20260906000053 92 165 0.0 0.0 0.00 0.00 0.00 63 1010.8
20260905235552 92 168 0.0 0.0 0.00 0.00 0.00 60 1010.8
20260905235048 93 168 0.0 0.0 0.00 0.00 0.00 60 1011.0
20260905234543 94 170 0.0 0.0 0.00 0.00 0.00 60 1011.0
20260905234038 95 166 0.0 0.0 0.00 0.00 0.00 59 1011.0
20260905233538 95 168 0.0 0.0 0.00 0.00 0.00 57 1011.0
20260905233038 96 169 0.0 0.0 0.00 0.00 0.00 55 1010.9
20260905232533 96 169 0.0 0.0 0.00 0.00 0.00 52 1011.1
20260905232029 97 170 0.0 0.0 0.00 0.00 0.00 50 1010.9
20260905231524 97 169 0.0 0.0 0.00 0.00 0.00 48 1011.0
20260905231021 97 174 0.0 0.0 0.00 0.00 0.00 48 1010.9
20260905230519 98 162 0.0 0.0 0.00 0.00 0.00 47 1010.8
20260905230018 100 162 1.0 1.0 0.00 0.00 0.00 44 1010.8
20260905225513 100 174 0.0 0.0 0.00 0.00 0.00 44 1010.9
20260905225008 101 169 0.0 1.0 0.00 0.00 0.00 41 1010.7
20260905224503 101 176 0.0 0.0 0.00 0.00 0.00 39 1010.8
20260905224002 100 174 0.0 0.0 0.00 0.00 0.00 41 1010.6
20260905223500 101 174 0.0 0.0 0.00 0.00 0.00 43 1010.8
20260905222955 102 176 0.0 1.0 0.00 0.00 0.00 41 1010.7
20260905222455 101 174 0.0 0.0 0.00 0.00 0.00 42 1010.6
20260905221950 100 159 0.0 0.0 0.00 0.00 0.00 41 1010.8
20260905221447 101 173 0.0 0.0 0.00 0.00 0.00 41 1010.8
20260905220943 101 178 0.0 0.0 0.00 0.00 0.00 42 1010.9
20260905220439 101 177 0.0 0.0 0.00 0.00 0.00 42 1011.0
20260905215938 102 183 1.0 1.0 0.00 0.00 0.00 42 1010.9
20260905215433 103 173 0.0 0.0 0.00 0.00 0.00 42 1010.9
20260905214930 103 172 0.0 0.0 0.00 0.00 0.00 44 1011.0
20260905214426 103 189 1.0 1.0 0.00 0.00 0.00 40 1010.9
20260905213925 103 177 0.0 0.0 0.00 0.00 0.00 41 1010.9
20260905213422 103 173 0.0 1.0 0.00 0.00 0.00 39 1010.9
20260905212917 103 178 0.0 0.0 0.00 0.00 0.00 39 1011.1
20260905212412 104 176 0.0 0.0 0.00 0.00 0.00 41 1011.0
20260905211911 103 178 0.0 0.0 0.00 0.00 0.00 40 1011.1
20260905211407 103 181 0.0 0.0 0.00 0.00 0.00 39 1011.0
20260905210903 104 176 0.0 1.0 0.00 0.00 0.00 38 1011.0
20260905210402 104 177 0.0 0.0 0.00 0.00 0.00 39 1011.2
20260905205902 104 178 0.0 0.0 0.00 0.00 0.00 40 1011.0
20260905205357 104 185 1.0 1.0 0.00 0.00 0.00 41 1011.1
20260905204855 103 182 0.0 0.0 0.00 0.00 0.00 38 1011.1
20260905204352 103 182 0.0 0.0 0.00 0.00 0.00 39 1011.4
20260905203850 103 179 0.0 0.0 0.00 0.00 0.00 38 1011.4
20260905203346 104 182 1.0 1.0 0.00 0.00 0.00 39 1011.4
20260905202842 103 177 0.0 0.0 0.00 0.00 0.00 38 1011.5
20260905202337 103 163 1.0 1.0 0.00 0.00 0.00 39 1011.6
20260905201833 104 182 1.0 1.0 0.00 0.00 0.00 38 1011.5
20260905201328 103 178 0.0 0.0 0.00 0.00 0.00 39 1011.7
20260905200828 103 158 0.0 1.0 0.00 0.00 0.00 37 1011.7
20260905200325 103 171 0.0 0.0 0.00 0.00 0.00 42 1012.0
20260905195821 103 172 1.0 2.0 0.00 0.00 0.00 41 1012.0
20260905195317 102 178 0.0 1.0 0.00 0.00 0.00 40 1012.0
20260905194813 101 189 0.0 1.0 0.00 0.00 0.00 40 1012.2
20260905194312 100 198 2.0 2.0 0.00 0.00 0.00 41 1012.2
20260905193812 101 109 4.0 4.0 0.00 0.00 0.00 40 1012.4
20260905193307 102 163 1.0 1.0 0.00 0.00 0.00 44 1012.4
20260905192802 102 175 1.0 1.0 0.00 0.00 0.00 40 1012.6
20260905192258 101 148 1.0 1.0 0.00 0.00 0.00 41 1012.6
20260905191757 102 212 2.0 2.0 0.00 0.00 0.00 38 1012.7
20260905191256 101 176 0.0 0.0 0.00 0.00 0.00 42 1012.7
20260905190755 101 170 1.0 1.0 0.00 0.00 0.00 40 1012.8
20260905190254 102 174 1.0 1.0 0.00 0.00 0.00 40 1012.7
20260905185753 101 181 1.0 1.0 0.00 0.00 0.00 43 1012.9
20260905185249 101 199 2.0 3.0 0.00 0.00 0.00 42 1013.1
20260905184748 101 156 1.0 1.0 0.00 0.00 0.00 42 1013.0
20260905184247 101 171 0.0 1.0 0.00 0.00 0.00 41 1013.0
20260905183741 101 168 1.0 1.0 0.00 0.00 0.00 41 1013.2
20260905183237 100 186 1.0 1.0 0.00 0.00 0.00 40 1013.1
20260905182736 100 31 1.0 2.0 0.00 0.00 0.00 41 1013.0
20260905182236 100 145 2.0 2.0 0.00 0.00 0.00 40 1013.1
20260905181731 100 140 1.0 1.0 0.00 0.00 0.00 42 1013.1
20260905181230 100 97 0.0 0.0 0.00 0.00 0.00 44 1013.0
20260905180725 100 184 0.0 0.0 0.00 0.00 0.00 42 1013.3
20260905180220 101 208 2.0 2.0 0.00 0.00 0.00 41 1013.5
20260905175720 100 177 0.0 1.0 0.00 0.00 0.00 40 1013.2
20260905175215 100 182 0.0 1.0 0.00 0.00 0.00 43 1013.3
20260905174710 100 175 1.0 1.0 0.00 0.00 0.00 41 1013.5
20260905174206 100 179 1.0 1.0 0.00 0.00 0.00 43 1013.5
20260905173702 100 176 1.0 1.0 0.00 0.00 0.00 46 1013.4
20260905173157 101 169 1.0 1.0 0.00 0.00 0.00 43 1013.6
20260905172657 101 175 0.0 0.0 0.00 0.00 0.00 42 1013.6
20260905172151 100 174 0.0 0.0 0.00 0.00 0.00 43 1013.7
20260905171647 100 160 0.0 0.0 0.00 0.00 0.00 43 1013.7
20260905171143 99 164 1.0 1.0 0.00 0.00 0.00 44 1013.8
20260905170640 99 177 0.0 1.0 0.00 0.00 0.00 45 1013.9
20260905170134 100 153 2.0 3.0 0.00 0.00 0.00 46 1013.9
20260905165628 99 166 0.0 1.0 0.00 0.00 0.00 48 1014.1
20260905165124 98 242 1.0 2.0 0.00 0.00 0.00 47 1014.1
20260905164619 98 129 1.0 2.0 0.00 0.00 0.00 50 1014.1
20260905164118 98 176 0.0 0.0 0.00 0.00 0.00 50 1014.0
20260905163615 98 172 0.0 1.0 0.00 0.00 0.00 49 1014.3
20260905163111 97 83 1.0 1.0 0.00 0.00 0.00 48 1014.3
20260905162607 98 24 2.0 2.0 0.00 0.00 0.00 49 1014.1
20260905162106 97 182 1.0 1.0 0.00 0.00 0.00 49 1014.3
20260905161606 97 180 2.0 2.0 0.00 0.00 0.00 50 1014.4
20260905161104 97 169 0.0 1.0 0.00 0.00 0.00 50 1014.2
20260905160603 97 171 0.0 1.0 0.00 0.00 0.00 50 1014.4
20260905155557 96 143 1.0 1.0 0.00 0.00 0.00 54 1014.5
20260905155055 96 169 0.0 0.0 0.00 0.00 0.00 54 1014.6
20260905154551 96 134 0.0 1.0 0.00 0.00 0.00 55 1014.4
20260905154046 95 167 1.0 1.0 0.00 0.00 0.00 56 1014.4
20260905153542 95 162 1.0 1.0 0.00 0.00 0.00 57 1014.4
20260905153042 94 139 1.0 1.0 0.00 0.00 0.00 58 1014.6
20260905152537 94 161 1.0 1.0 0.00 0.00 0.00 57 1014.4
20260905152032 94 161 1.0 1.0 0.00 0.00 0.00 57 1014.5
20260905151527 94 174 2.0 2.0 0.00 0.00 0.00 57 1014.5
20260905151022 94 163 0.0 0.0 0.00 0.00 0.00 58 1014.4
20260905150517 93 161 1.0 1.0 0.00 0.00 0.00 58 1014.4
20260905150016 93 171 0.0 0.0 0.00 0.00 0.00 61 1014.4
20260905145515 93 156 2.0 2.0 0.00 0.00 0.00 59 1014.4
20260905145014 91 165 0.0 1.0 0.00 0.00 0.00 62 1014.5
20260905144510 91 190 1.0 2.0 0.00 0.00 0.00 62 1014.5
20260905144008 90 169 0.0 0.0 0.00 0.00 0.00 63 1014.3
20260905143508 89 172 1.0 1.0 0.00 0.00 0.00 65 1014.4
20260905143003 89 173 1.0 1.0 0.00 0.00 0.00 66 1014.5
20260905142501 89 157 0.0 1.0 0.00 0.00 0.00 68 1014.5
20260905141957 88 171 0.0 0.0 0.00 0.00 0.00 67 1014.5
20260905141451 87 169 0.0 0.0 0.00 0.00 0.00 68 1014.3
20260905140948 87 184 1.0 1.0 0.00 0.00 0.00 68 1014.2
20260905140443 86 176 0.0 1.0 0.00 0.00 0.00 69 1014.3
20260905135941 86 178 0.0 1.0 0.00 0.00 0.00 71 1014.2
20260905135437 86 172 0.0 0.0 0.00 0.00 0.00 73 1014.3
20260905134933 85 174 0.0 0.0 0.00 0.00 0.00 73 1014.3
20260905134432 85 173 0.0 0.0 0.00 0.00 0.00 74 1014.2
20260905133932 85 173 0.0 0.0 0.00 0.00 0.00 73 1014.5
20260905133431 85 173 0.0 0.0 0.00 0.00 0.00 74 1014.1
20260905132932 84 174 0.0 0.0 0.00 0.00 0.00 72 1014.1
20260905132427 84 175 0.0 0.0 0.00 0.00 0.00 73 1014.3
20260905131922 83 174 0.0 0.0 0.00 0.00 0.00 74 1014.1
20260905131418 82 176 0.0 0.0 0.00 0.00 0.00 76 1013.9
20260905130918 81 172 0.0 0.0 0.00 0.00 0.00 79 1014.0
20260905130418 81 168 0.0 0.0 0.00 0.00 0.00 81 1014.0
20260905125917 80 168 0.0 0.0 0.00 0.00 0.00 84 1013.8
20260905125413 79 168 0.0 0.0 0.00 0.00 0.00 84 1014.0
20260905124908 79 168 0.0 0.0 0.00 0.00 0.00 85 1013.9
20260905124405 78 173 0.0 0.0 0.00 0.00 0.00 86 1013.9
20260905123904 78 173 0.0 0.0 0.00 0.00 0.00 86 1013.9
20260905123401 77 173 0.0 0.0 0.00 0.00 0.00 87 1013.9
20260905122856 77 173 0.0 0.0 0.00 0.00 0.00 87 1014.0
20260905122355 77 173 0.0 0.0 0.00 0.00 0.00 87 1013.9
20260905121851 77 175 0.0 0.0 0.00 0.00 0.00 87 1014.0
20260905121347 77 177 0.0 0.0 0.00 0.00 0.00 86 1013.9
20260905120845 77 167 0.0 0.0 0.00 0.00 0.00 86 1013.7
20260905120340 77 165 0.0 0.0 0.00 0.00 0.00 86 1013.6